Roberts Field Redmond US
ICAO: KRDM
IATA: RDM
Category: Medium
Scheduled Services: Yes

Elevation: 3080 ft
TransAlt. 18000 ft.

Airport Communications:
ASOS:119.025
SEATTLE CNTR:128.15
CTAF:124.5
GND:121.8
MC MINNVILLE RDO:122.5
REDMOND TWR:124.5
UNICOM:122.95

KRDM Zoom In..

Runways:

(A) RW 04 length 7038 ft width 150 ft
---- / hdg 42

(B) RW 10 length 7006 ft width 100 ft
---- / hdg 104

(C) RW 22 length 7038 ft width 150 ft
ILS 109.10 / hdg 222

(D) RW 28 length 7006 ft width 100 ft
---- / hdg 284

Location; KRDM
Day. 27 / Time. 06.56 Zulu
* Altimeter: 30.36
* Temperature: -05° c. -23°f.
* Wind from: 080° Speed 03 kn.
Dewpoint: -08° c.
Visibility: 10 Statute Miles.
Clouds: Clear (automated report).

KRDM 270656Z AUTO 08003KT 10SM CLR M05/M08 A3036 RMK AO2 SLP301 T10501078

Going to: --> -->


Wind From 080°
Speed 03 kn.

 
 
jpsmedia worldairports.se 2020   terms of use